sat.trackr.live / text

‹ back to catalog

STARLINK-11179 [DTC]

NORAD 60190 · 2024-124H

PAYLOAD ACTIVE UNKNOWN

§ Identity

Operator
Country
US
Launch date
2024-07-03
Launch site
AFETR
Launch vehicle
Mass (kg)
RCS (m²)

Purposes: comms

External: N2YO · Heavens-Above · Gunter

§ Orbital elements

Epoch: 2026-09-21T17:55:52.922784Z

Period
91.74 min
Inclination
53.1582°
Eccentricity
0.0001684
Mean motion
15.69704819 rev/d
Perigee alt
358.6 km
Apogee alt
360.9 km
Semi-major
6,737.9 km
B*
1.1283e-8
RAAN
275.0165°
Arg perigee
85.4933°
Mean anomaly
274.6278°
Rev number
12,732

§ Raw data

STARLINK-11179 [DTC]1 60190U 24124H   26264.74714031 -.00000588  00000+0  11283-7 0  99992 60190  53.1582 275.0165 0001684  85.4933 274.6278 15.69704819127320

JSON: /api/v1/satellites/60190 · /tle

For live sub-satellite position, see the globe view (requires WebGL).

§ Visibility from observer

Set your observer location to see the next 7 days of passes ≥ 10°. The values pass through the URL so the page stays shareable.

No JS? Fill the form by hand. The geolocation button needs JavaScript.